Regional Weather Roundup
Issued by NWS

Home | Current Version | Previous Version | Graphics & Text | Print | Product List | Glossary On
Versions: 1 2 3 4 5 6 7 8 9 10 11 12 13 14 15 16 17 18 19 20 21 22 23 24 25 26 27 28 29 30 31 32 33 34 35 36 37 38 39 40 41 42 43 44 45 46 47 48 49 50
000
ASUS45 KSLC 170610
RWRUT

UTAH REGIONAL WEATHER ROUNDUP
NATIONAL WEATHER SERVICE SALT LAKE CITY UT
1200 AM MDT WED SEP 17 2014

UTZ001>011-023>025-170700-

NORTHERN UTAH

CITY           SKY/WX    TMP DP  RH WIND       PRES   REMARKS
HILL AFB       CLEAR     72  42  33 E15       30.00S
LOGAN          CLEAR     59  48  67 CALM      30.00R
OGDEN          NOT AVBL
PROVO AIRPORT  NOT AVBL
SALT LAKE CITY NOT AVBL
VERNAL         NOT AVBL
WENDOVER       NOT AVBL
WEST JORDAN    CLEAR     72  41  33 S7        30.01S

$$

UTZ012>022-026-027-170700-

SOUTHERN UTAH

CITY           SKY/WX    TMP DP  RH WIND       PRES   REMARKS
BRYCE CANYON   CLOUDY    53  42  66 W6        30.30F
CEDAR CITY     NOT AVBL
MILFORD        PTCLDY    68  38  33 SW8       30.04F
MOAB/CYNLANDS  CLEAR     69  42  37 CALM      30.03S
PRICE          NOT AVBL
ST GEORGE      NOT AVBL
KANAB            N/A     70  46  43 MISG      30.14R

$$

REGIONAL REPORTS     COLORADO/ARIZONA

CITY           SKY/WX    TMP DP  RH WIND       PRES   REMARKS
CRAIG, CO      NOT AVBL
GRAND JUNCTION NOT AVBL
RIFLE          NOT AVBL
MONTROSE       NOT AVBL
CORTEZ         NOT AVBL
PAGE, AZ       NOT AVBL
GRAND CANYON   NOT AVBL
KINGMAN        CLOUDY    69  65  86 SE5       30.04R
FLAGSTAFF      CLOUDY    58  56  93 CALM      30.26F

$$

REGIONAL REPORTS    NEVADA/IDAHO/WYOMING

CITY           SKY/WX    TMP DP  RH WIND       PRES   REMARKS
LAS VEGAS, NV  NOT AVBL
ELY            NOT AVBL
ELKO           NOT AVBL
POCATELLO, ID  NOT AVBL
EVANSTON, WY   NOT AVBL
ROCK SPRINGS   NOT AVBL

$$



USA.gov is the U.S. government's official web portal to all federal, state and local government web resources and services.